EW6000 Weather Reports


time (UTC)temp
C
wind
direction
speed
KPH
gust
KPH
rain 1hr
cm
rain 24hr
cm
rain mn
cm
humidity
%
barometer
mb
20260504150957 17 293 6.4 11.3 0.00 0.00 0.00 45 1006.0
20260504140958 12 270 3.2 8.0 0.00 0.00 0.00 60 1006.3
20260504140457 12 273 3.2 8.0 0.00 0.00 0.00 61 1006.3
20260504130457 8 261 3.2 6.4 0.00 0.00 0.00 74 1006.1
20260504110458 6 314 0.0 1.6 0.00 0.00 0.00 82 1006.0
20260504100458 7 299 0.0 1.6 0.00 0.00 0.00 78 1006.1
20260504081958 10 260 0.0 3.2 0.00 0.00 0.00 69 1006.6
20260504081459 10 260 1.6 3.2 0.00 0.00 0.00 69 1006.6
20260504080458 10 264 1.6 3.2 0.00 0.00 0.00 68 1006.6
20260504050457 13 154 0.0 4.8 0.00 0.00 0.00 59 1008.5
20260504045959 13 154 0.0 4.8 0.00 0.00 0.00 59 1008.5
20260504045458 13 124 1.6 4.8 0.00 0.00 0.00 58 1008.5
20260504044958 13 127 1.6 6.4 0.00 0.00 0.00 57 1008.6
20260504044457 14 110 1.6 6.4 0.00 0.00 0.00 55 1008.6
20260504043458 14 26 3.2 4.8 0.00 0.00 0.00 50 1008.7
20260504042958 14 359 4.8 9.7 0.00 0.00 0.00 50 1009.4
20260504042458 14 356 4.8 9.7 0.00 0.00 0.00 49 1009.5
20260504041957 14 356 4.8 8.0 0.00 0.00 0.00 50 1009.5
20260504041458 14 348 4.8 8.0 0.00 0.00 0.00 50 1009.3
20260504040957 14 344 3.2 6.4 0.00 0.00 0.00 50 1009.2
20260504040458 14 343 1.6 4.8 0.00 0.00 0.00 51 1009.1
20260504035958 14 342 1.6 3.2 0.00 0.00 0.00 51 1009.0
20260504035458 14 345 1.6 3.2 0.00 0.00 0.00 51 1009.0
20260504034458 15 354 1.6 3.2 0.00 0.00 0.00 50 1008.8
20260504033958 15 355 1.6 4.8 0.00 0.00 0.00 50 1008.8
20260504033458 15 355 3.2 4.8 0.00 0.00 0.00 49 1008.8
20260504032958 15 354 3.2 4.8 0.00 0.00 0.00 50 1008.8
20260504032500 15 355 1.6 4.8 0.00 0.00 0.00 51 1008.7
20260504031959 16 0 0.0 0.0 0.00 0.00 0.00 49 1008.8
20260504031458 16 0 0.0 0.0 0.00 0.00 0.00 47 1008.8
20260504030458 16 0 0.0 0.0 0.00 0.00 0.00 45 1008.8
20260504025458 17 0 0.0 0.0 0.00 0.00 0.00 43 1008.7
20260504024958 17 0 0.0 0.0 0.00 0.00 0.00 43 1008.5
20260504024458 17 139 0.0 1.6 0.00 0.00 0.00 42 1008.4
20260504023958 17 139 0.0 1.6 0.00 0.00 0.00 41 1008.3
20260504023457 18 138 0.0 1.6 0.00 0.00 0.00 40 1008.2
20260504022958 18 138 0.0 3.2 0.00 0.00 0.00 39 1008.1
20260504021958 18 122 3.2 6.4 0.00 0.00 0.00 38 1008.0
20260504021458 18 115 4.8 9.7 0.00 0.00 0.00 38 1008.0
20260504020958 18 118 4.8 11.3 0.00 0.00 0.00 38 1007.9
20260504015958 20 115 4.8 8.0 0.00 0.00 0.00 36 1007.9
20260504015458 20 117 4.8 8.0 0.00 0.00 0.00 36 1007.9
20260504014958 20 121 3.2 6.4 0.00 0.00 0.00 36 1007.9
20260504014458 20 121 3.2 4.8 0.00 0.00 0.00 36 1007.9
20260504012958 21 123 3.2 6.4 0.00 0.00 0.00 34 1008.2
20260504012458 21 111 3.2 6.4 0.00 0.00 0.00 33 1008.2
20260504011958 21 110 3.2 8.0 0.00 0.00 0.00 32 1008.2
20260504011458 22 112 4.8 9.7 0.00 0.00 0.00 32 1008.1
20260504010958 22 113 4.8 9.7 0.00 0.00 0.00 31 1008.1
20260504010500 22 116 3.2 6.4 0.00 0.00 0.00 31 1008.2
20260504005958 22 114 3.2 6.4 0.00 0.00 0.00 30 1008.3
20260504005458 22 112 3.2 6.4 0.00 0.00 0.00 30 1008.4
20260504004958 23 111 1.6 6.4 0.00 0.00 0.00 30 1008.6
20260504004459 23 109 1.6 6.4 0.00 0.00 0.00 27 1008.7
20260504003958 23 106 1.6 6.4 0.00 0.00 0.00 27 1008.6
20260504003458 23 109 1.6 6.4 0.00 0.00 0.00 27 1008.8
20260504002958 23 121 1.6 6.4 0.00 0.00 0.00 27 1008.9
20260504002458 23 128 1.6 3.2 0.00 0.00 0.00 27 1008.9
20260504001958 23 135 1.6 3.2 0.00 0.00 0.00 27 1008.9
20260504001459 23 124 3.2 4.8 0.00 0.00 0.00 27 1008.9
20260504000958 23 118 3.2 6.4 0.00 0.00 0.00 28 1009.0
20260504000458 23 116 3.2 6.4 0.00 0.00 0.00 27 1009.2
20260503235958 23 119 4.8 8.0 0.00 0.00 0.00 28 1009.1
20260503235458 23 119 4.8 9.7 0.00 0.00 0.00 28 1009.2
20260503234958 23 116 3.2 9.7 0.00 0.00 0.00 27 1009.3
20260503234458 23 90 1.6 6.4 0.00 0.00 0.00 28 1009.4
20260503233959 23 31 1.6 3.2 0.00 0.00 0.00 27 1009.5
20260503233458 23 10 1.6 3.2 0.00 0.00 0.00 27 1009.5
20260503232958 23 51 1.6 4.8 0.00 0.00 0.00 28 1009.6
20260503232458 23 135 3.2 4.8 0.00 0.00 0.00 27 1009.6
20260503231458 23 160 3.2 8.0 0.00 0.00 0.00 26 1009.8
20260503230458 24 216 3.2 6.4 0.00 0.00 0.00 26 1009.9
20260503225958 24 227 3.2 6.4 0.00 0.00 0.00 25 1009.9
20260503225458 24 251 3.2 6.4 0.00 0.00 0.00 25 1010.0
20260503224958 25 325 3.2 11.3 0.00 0.00 0.00 25 1010.0
20260503224458 24 98 4.8 11.3 0.00 0.00 0.00 26 1010.1
20260503223458 25 157 3.2 8.0 0.00 0.00 0.00 25 1010.3
20260503222958 25 158 3.2 9.7 0.00 0.00 0.00 26 1010.3
20260503222458 24 168 3.2 9.7 0.00 0.00 0.00 26 1010.4
20260503221958 24 162 4.8 9.7 0.00 0.00 0.00 26 1010.5
20260503221458 23 145 4.8 9.7 0.00 0.00 0.00 27 1010.6
20260503220958 23 124 3.2 8.0 0.00 0.00 0.00 26 1010.7
20260503220458 23 349 3.2 9.7 0.00 0.00 0.00 27 1010.7
20260503215959 23 8 4.8 9.7 0.00 0.00 0.00 27 1010.7
20260503215459 23 47 3.2 9.7 0.00 0.00 0.00 27 1010.9
20260503214958 23 48 3.2 9.7 0.00 0.00 0.00 27 1010.9
20260503214458 23 61 3.2 6.4 0.00 0.00 0.00 27 1010.9
20260503213958 23 38 3.2 6.4 0.00 0.00 0.00 27 1011.0
20260503213459 23 12 3.2 6.4 0.00 0.00 0.00 28 1011.0
20260503212959 23 49 3.2 9.7 0.00 0.00 0.00 28 1011.0
20260503212458 23 80 3.2 9.7 0.00 0.00 0.00 27 1011.1
20260503211959 23 79 3.2 6.4 0.00 0.00 0.00 27 1011.1
20260503211458 23 35 4.8 6.4 0.00 0.00 0.00 27 1011.2
20260503210959 23 2 4.8 14.5 0.00 0.00 0.00 28 1011.4
20260503210458 23 3 6.4 14.5 0.00 0.00 0.00 28 1011.5
20260503205959 23 7 4.8 14.5 0.00 0.00 0.00 28 1011.5
20260503205458 23 20 4.8 11.3 0.00 0.00 0.00 27 1011.6
20260503204959 23 20 4.8 11.3 0.00 0.00 0.00 27 1011.7
20260503204458 23 11 6.4 14.5 0.00 0.00 0.00 28 1011.8
20260503204009 23 7 8.0 16.1 0.00 0.00 0.00 28 1011.9
20260503203458 23 7 6.4 17.7 0.00 0.00 0.00 27 1011.8
20260503203003 23 337 3.2 17.7 0.00 0.00 0.00 28 1011.9
20260503202459 23 330 4.8 11.3 0.00 0.00 0.00 27 1012.0
20260503201959 23 355 3.2 11.3 0.00 0.00 0.00 27 1011.9
20260503201458 23 11 3.2 8.0 0.00 0.00 0.00 26 1012.0
20260503200458 23 16 4.8 11.3 0.00 0.00 0.00 27 1012.0
20260503195959 23 28 3.2 9.7 0.00 0.00 0.00 27 1012.0
20260503195458 23 33 3.2 8.0 0.00 0.00 0.00 27 1012.1
20260503194959 23 27 3.2 8.0 0.00 0.00 0.00 26 1012.2
20260503194458 23 325 1.6 8.0 0.00 0.00 0.00 26 1012.2
20260503193959 23 3 3.2 11.3 0.00 0.00 0.00 28 1012.3
20260503192959 23 23 3.2 9.7 0.00 0.00 0.00 27 1012.3
20260503192458 23 4 3.2 9.7 0.00 0.00 0.00 28 1012.4
20260503191459 23 92 3.2 9.7 0.00 0.00 0.00 27 1012.6
20260503190459 23 50 3.2 8.0 0.00 0.00 0.00 27 1012.7
20260503185959 23 36 3.2 11.3 0.00 0.00 0.00 28 1012.8
20260503185458 23 19 3.2 11.3 0.00 0.00 0.00 29 1013.0
20260503184959 23 20 1.6 6.4 0.00 0.00 0.00 29 1013.0
20260503184459 23 166 3.2 8.0 0.00 0.00 0.00 27 1013.1
20260503183958 22 285 3.2 8.0 0.00 0.00 0.00 28 1013.1
20260503183459 22 332 4.8 11.3 0.00 0.00 0.00 28 1013.3
20260503182958 22 339 4.8 11.3 0.00 0.00 0.00 28 1013.4
20260503182459 22 357 4.8 16.1 0.00 0.00 0.00 30 1013.4
20260503181958 22 14 3.2 16.1 0.00 0.00 0.00 28 1013.5
20260503180958 22 13 3.2 12.9 0.00 0.00 0.00 31 1013.7
20260503180458 21 1 4.8 12.9 0.00 0.00 0.00 30 1013.6
20260503175459 22 43 4.8 12.9 0.00 0.00 0.00 30 1013.8
20260503174959 22 95 1.6 6.4 0.00 0.00 0.00 28 1013.9
20260503174459 22 64 3.2 11.3 0.00 0.00 0.00 29 1014.0
20260503173959 21 28 4.8 16.1 0.00 0.00 0.00 30 1014.2
20260503173459 21 22 4.8 16.1 0.00 0.00 0.00 31 1014.2
20260503172958 21 58 3.2 8.0 0.00 0.00 0.00 33 1014.3
20260503172458 21 58 4.8 12.9 0.00 0.00 0.00 31 1014.4
20260503171959 21 29 4.8 12.9 0.00 0.00 0.00 31 1014.5
20260503171001 21 16 6.4 14.5 0.00 0.00 0.00 31 1014.7
20260503170458 21 20 4.8 14.5 0.00 0.00 0.00 32 1014.7